HB9DDE-10 Weather Reports


time (UTC)temp
C
wind
direction
speed
KPH
gust
KPH
rain 1hr
cm
rain 24hr
cm
rain mn
cm
humidity
%
barometer
mb
20260507181837 15 294 0.0 4.8 0.00 1.19 0.23 65 1015.0
20260507181349 15 304 1.6 4.8 0.00 1.19 0.23 63 1015.0
20260507180838 16 335 0.0 4.8 0.00 1.19 0.23 63 1014.9
20260507180348 16 347 0.0 4.8 0.00 1.19 0.23 63 1014.8
20260507175838 16 288 1.6 4.8 0.00 1.19 0.23 62 1014.9
20260507175348 16 321 0.0 3.2 0.00 1.19 0.23 63 1014.8
20260507174842 16 261 0.0 3.2 0.00 1.19 0.23 63 1014.9
20260507174353 16 283 0.0 3.2 0.00 1.19 0.23 62 1014.8
20260507173842 16 304 1.6 4.8 0.00 1.19 0.23 62 1014.7
20260507173351 16 319 0.0 6.4 0.00 1.19 0.23 63 1014.7
20260507172841 15 319 1.6 6.4 0.00 1.19 0.23 63 1014.7
20260507172352 15 330 3.2 6.4 0.00 1.19 0.23 64 1014.7
20260507171842 15 356 1.6 6.4 0.00 1.19 0.23 63 1014.7
20260507171351 15 356 1.6 6.4 0.00 1.19 0.23 63 1014.6
20260507170844 15 347 3.2 6.4 0.00 1.19 0.23 62 1014.5
20260507170335 16 310 0.0 4.8 0.00 1.19 0.23 61 1014.5
20260507165845 16 25 0.0 6.4 0.00 1.19 0.23 61 1014.5
20260507165335 16 305 1.6 6.4 0.00 1.19 0.23 60 1014.5
20260507164845 16 310 1.6 6.4 0.00 1.19 0.23 61 1014.6
20260507164354 16 300 1.6 6.4 0.00 1.19 0.23 61 1014.6
20260507163842 16 17 3.2 8.0 0.00 1.19 0.23 59 1014.5
20260507163352 16 342 1.6 6.4 0.00 1.19 0.23 58 1014.5
20260507162843 16 333 0.0 6.4 0.00 1.19 0.23 60 1014.4
20260507162337 16 295 1.6 6.4 0.00 1.19 0.23 59 1014.4
20260507161846 16 233 1.6 6.4 0.00 1.19 0.23 59 1014.4
20260507161336 16 326 1.6 6.4 0.00 1.19 0.23 61 1014.5
20260507160846 16 183 0.0 4.8 0.00 1.19 0.23 61 1014.5
20260507160355 16 340 1.6 4.8 0.00 1.19 0.23 60 1014.4
20260507155842 16 182 0.0 3.2 0.00 1.19 0.23 64 1014.4
20260507155352 16 309 1.6 8.0 0.00 1.19 0.23 60 1014.5
20260507154841 16 360 1.6 8.0 0.00 1.19 0.23 60 1014.5
20260507154350 16 325 0.0 8.0 0.00 1.19 0.23 60 1014.5
20260507153843 17 18 1.6 8.0 0.00 1.19 0.23 60 1014.5
20260507153353 17 300 3.2 11.3 0.00 1.19 0.23 57 1014.4
20260507153148 17 17 3.2 11.3 0.00 1.19 0.23 59 1014.4
20260507152842 17 17 3.2 11.3 0.00 1.19 0.23 59 1014.4
20260507152545 17 290 3.2 8.0 0.00 1.19 0.23 59 1014.4
20260507152352 17 316 1.6 8.0 0.00 1.19 0.23 60 1014.4
20260507151842 17 290 3.2 8.0 0.00 1.19 0.23 59 1014.4
20260507151352 17 188 1.6 8.0 0.00 1.19 0.23 60 1014.4
20260507150842 17 289 4.8 8.0 0.00 1.19 0.23 57 1014.5
20260507150352 17 303 0.0 8.0 0.00 1.19 0.23 58 1014.4
20260507145846 17 319 3.2 8.0 0.00 1.19 0.23 58 1014.5
20260507145335 17 307 1.6 6.4 0.00 1.19 0.23 62 1014.4
20260507144844 17 23 1.6 8.0 0.00 1.19 0.23 59 1014.4
20260507144354 17 307 1.6 8.0 0.00 1.19 0.23 61 1014.5
20260507143843 16 205 1.6 8.0 0.00 1.19 0.23 64 1014.5
20260507143353 16 342 1.6 8.0 0.00 1.19 0.23 61 1014.5
20260507142842 17 324 1.6 6.4 0.00 1.19 0.23 61 1014.5
20260507142351 17 329 0.0 6.4 0.00 1.19 0.23 61 1014.5
20260507141842 17 321 1.6 8.0 0.00 1.19 0.23 63 1014.5
20260507141336 17 307 1.6 9.7 0.00 1.19 0.23 62 1014.5
20260507140846 17 316 4.8 14.5 0.00 1.19 0.23 63 1014.5
20260507140355 17 282 4.8 14.5 0.00 1.19 0.23 64 1014.5
20260507135844 17 310 1.6 9.7 0.00 1.19 0.23 64 1014.6
20260507135354 17 339 1.6 9.7 0.00 1.19 0.23 66 1014.7
20260507134842 17 257 0.0 4.8 0.20 1.19 0.23 68 1014.7
20260507134351 16 323 0.0 4.8 0.41 1.19 0.23 68 1014.8
20260507133842 16 285 0.0 6.4 0.41 1.19 0.23 70 1014.9
20260507133336 15 333 1.6 6.4 0.41 1.19 0.23 71 1014.9
20260507132846 15 320 0.0 6.4 0.41 1.19 0.23 71 1014.9
20260507132335 15 326 1.6 6.4 0.41 1.19 0.23 74 1014.9
20260507131847 15 221 0.0 1.6 0.41 1.19 0.23 76 1015.0
20260507131337 14 284 0.0 4.8 0.41 1.19 0.23 77 1015.0
20260507130850 14 332 0.0 4.8 0.41 1.19 0.23 80 1015.0
20260507130339 13 285 1.6 4.8 0.41 1.80 0.23 80 1015.0
20260507125849 13 300 0.0 3.2 0.41 1.80 0.23 82 1015.2
20260507125338 13 324 0.0 4.8 0.41 1.80 0.23 81 1015.2
20260507124851 13 281 1.6 12.9 0.20 1.60 0.20 77 1015.2
20260507124340 14 11 3.2 12.9 0.00 1.40 0.15 72 1015.1
20260507123850 15 314 3.2 11.3 0.00 1.40 0.15 71 1015.1
20260507123340 15 293 3.2 9.7 0.00 1.40 0.15 68 1015.1
20260507122849 16 291 4.8 9.7 0.00 1.40 0.15 67 1015.0
20260507122339 16 348 1.6 8.0 0.00 1.40 0.15 68 1015.0
20260507121849 16 303 1.6 8.0 0.00 1.40 0.15 71 1014.9
20260507121340 16 348 1.6 9.7 0.00 1.40 0.15 68 1014.9
20260507120849 16 227 1.6 9.7 0.00 1.40 0.15 69 1015.0
20260507120343 16 345 1.6 12.9 0.00 2.79 0.15 68 1015.0
20260507115853 16 194 3.2 12.9 0.00 2.79 0.15 67 1014.9
20260507115343 16 259 0.0 6.4 0.00 2.79 0.15 70 1015.0
20260507114854 16 264 3.2 9.7 0.00 2.79 0.15 67 1015.0
20260507113841 15 234 0.0 3.2 0.00 2.79 0.15 73 1015.1
20260507113352 15 24 0.0 6.4 0.00 2.79 0.15 71 1015.1
20260507112842 15 318 1.6 8.0 0.00 2.79 0.15 70 1015.1
20260507112335 15 244 1.6 8.0 0.00 2.79 0.15 73 1015.1
20260507111846 15 245 3.2 9.7 0.00 2.79 0.15 72 1015.1
20260507111335 15 316 3.2 9.7 0.00 2.79 0.15 71 1015.1
20260507110845 15 335 1.6 9.7 0.00 2.79 0.15 71 1015.1
20260507110355 15 333 1.6 4.8 0.00 2.79 0.15 67 1015.1
20260507105341 15 252 0.0 3.2 0.00 2.79 0.15 66 1015.1
20260507104851 15 113 0.0 4.8 0.00 2.79 0.15 69 1015.1
20260507104344 15 288 0.0 4.8 0.00 2.79 0.15 70 1015.2
20260507103835 15 338 1.6 4.8 0.00 2.79 0.15 68 1015.2
20260507103346 15 298 0.0 3.2 0.00 2.79 0.15 71 1015.2
20260507102835 15 298 0.0 4.8 0.00 2.79 0.15 72 1015.2
20260507102343 15 333 1.6 4.8 0.00 2.79 0.15 70 1015.2
20260507101853 15 7 0.0 6.4 0.00 2.79 0.15 71 1015.3
20260507101342 15 124 0.0 6.4 0.00 2.79 0.15 72 1015.3
20260507100852 15 158 1.6 4.8 0.00 2.79 0.15 76 1015.2
20260507100341 14 221 0.0 4.8 0.00 3.00 0.15 76 1015.3
20260507095835 13 267 1.6 4.8 0.00 3.00 0.15 77 1015.3
20260507095346 13 143 1.6 4.8 0.00 3.00 0.15 78 1015.4
20260507094835 13 229 1.6 4.8 0.00 3.00 0.15 80 1015.4
20260507094346 13 163 0.0 4.8 0.00 3.00 0.15 80 1015.4
20260507093836 13 307 1.6 4.8 0.00 3.00 0.15 80 1015.5
20260507093345 12 308 0.0 3.2 0.00 3.00 0.15 85 1015.5
20260507092853 12 308 0.0 3.2 0.00 3.00 0.15 84 1015.4
20260507092346 12 308 0.0 3.2 0.00 3.00 0.15 85 1015.4
20260507091840 12 308 0.0 3.2 0.00 3.00 0.15 85 1015.4
20260507091351 12 56 0.0 4.8 0.00 3.00 0.15 85 1015.4
20260507090841 12 210 1.6 4.8 0.00 3.00 0.15 86 1015.4
20260507090351 11 306 0.0 6.4 0.00 3.10 0.15 87 1015.4
20260507085841 11 295 0.0 6.4 0.00 3.10 0.15 87 1015.4
20260507085351 11 287 0.0 4.8 0.00 3.10 0.15 86 1015.4
20260507084841 11 318 1.6 6.4 0.00 3.10 0.15 87 1015.4
20260507084351 11 124 1.6 4.8 0.00 3.10 0.15 87 1015.4
20260507083840 11 192 0.0 3.2 0.00 3.10 0.15 88 1015.4
20260507083354 11 32 1.6 4.8 0.00 3.10 0.15 89 1015.4
20260507082843 11 141 1.6 4.8 0.00 3.10 0.15 90 1015.3
20260507082353 11 169 0.0 6.4 0.00 3.10 0.15 92 1015.3
20260507081842 11 218 3.2 8.0 0.00 3.10 0.15 91 1015.4
20260507081352 10 144 3.2 8.0 0.00 3.10 0.15 92 1015.5
20260507080841 10 307 0.0 3.2 0.00 3.10 0.15 93 1015.5
20260507080351 10 183 0.0 1.6 0.00 3.10 0.15 93 1015.4
20260507075840 10 152 0.0 1.6 0.00 3.10 0.15 94 1015.4
20260507075334 10 148 0.0 1.6 0.00 3.10 0.15 94 1015.4
20260507074845 10 148 0.0 1.6 0.00 3.10 0.15 95 1015.3
20260507074354 10 148 0.0 0.0 0.00 3.10 0.15 95 1015.3
20260507073841 10 148 0.0 0.0 0.00 3.10 0.15 95 1015.3
20260507073350 10 148 0.0 0.0 0.00 3.10 0.15 96 1015.2
20260507072840 10 148 0.0 0.0 0.10 3.10 0.15 96 1015.2
20260507072351 9 148 0.0 0.0 0.10 3.10 0.15 96 1015.2
20260507071841 9 148 0.0 0.0 0.10 3.10 0.15 96 1015.2
20260507071351 9 148 0.0 0.0 0.10 3.10 0.15 96 1015.2
20260507070845 9 148 0.0 0.0 0.20 3.10 0.15 97 1015.2
20260507070336 8 148 0.0 0.0 0.20 3.10 0.15 97 1015.1
20260507065848 8 148 0.0 0.0 0.20 3.10 0.15 97 1015.2
20260507065336 8 148 0.0 0.0 0.20 3.10 0.15 97 1015.1
20260507064848 8 148 0.0 0.0 0.20 3.10 0.15 97 1015.0
20260507064337 8 148 0.0 0.0 0.20 3.10 0.15 97 1015.0
20260507063847 8 148 0.0 0.0 0.20 3.10 0.15 97 1015.0
20260507063337 8 148 0.0 0.0 0.20 3.10 0.15 97 1014.9
20260507062848 8 148 0.0 0.0 0.10 3.00 0.15 97 1014.9
20260507062341 8 148 0.0 0.0 0.10 3.00 0.15 97 1014.9
20260507061851 8 148 0.0 0.0 0.10 3.00 0.15 97 1014.8
20260507060851 8 148 0.0 0.0 0.00 2.90 0.13 97 1014.8
20260507060341 8 148 0.0 0.0 0.00 2.90 0.13 97 1014.7
20260507055850 8 148 0.0 0.0 0.00 2.90 0.13 97 1014.7
20260507055339 8 148 0.0 0.0 0.00 2.90 0.13 97 1014.7
20260507054848 8 148 0.0 0.0 0.00 2.90 0.13 97 1014.5
20260507054342 8 148 0.0 0.0 0.00 2.90 0.13 97 1014.5
20260507053853 8 148 0.0 0.0 0.00 2.90 0.13 97 1014.5
20260507053343 7 148 0.0 0.0 0.00 2.90 0.13 97 1014.5
20260507052854 7 148 0.0 0.0 0.00 2.90 0.13 97 1014.4
20260507052344 7 148 0.0 0.0 0.00 2.90 0.13 97 1014.3
20260507051854 7 148 0.0 0.0 0.00 2.90 0.13 97 1014.3
20260507051342 7 148 0.0 0.0 0.00 2.90 0.13 97 1014.3
20260507050852 7 148 0.0 0.0 0.00 2.90 0.13 97 1014.2
20260507050342 7 148 0.0 0.0 0.00 2.90 0.13 97 1014.2
20260507045835 7 148 0.0 0.0 0.00 2.90 0.13 97 1014.1
20260507045348 7 148 0.0 0.0 0.00 2.90 0.13 97 1014.0
20260507044837 7 148 0.0 0.0 0.00 2.90 0.13 97 1014.0
20260507044349 7 148 0.0 0.0 0.00 2.90 0.13 97 1014.0
20260507043840 7 148 0.0 0.0 0.00 2.90 0.13 97 1013.9
20260507043348 7 148 0.0 0.0 0.00 2.90 0.13 97 1013.8
20260507042838 7 148 0.0 0.0 0.00 2.90 0.13 97 1013.8
20260507042348 7 148 0.0 0.0 0.00 2.90 0.13 97 1013.8
20260507041842 7 148 0.0 0.0 0.00 2.90 0.13 97 1013.8
20260507041352 7 148 0.0 0.0 0.00 2.90 0.13 97 1013.7
20260507040841 7 148 0.0 0.0 0.10 2.90 0.13 97 1013.7
20260507040351 7 148 0.0 0.0 0.10 2.90 0.13 97 1013.7
20260507035840 7 148 0.0 0.0 0.10 2.90 0.13 97 1013.7
20260507035350 7 148 0.0 0.0 0.10 2.90 0.13 97 1013.7
20260507034841 7 148 0.0 0.0 0.10 2.90 0.13 97 1013.7
20260507034351 7 148 0.0 0.0 0.10 2.90 0.13 96 1013.6
20260507033842 7 148 0.0 0.0 0.10 2.90 0.13 96 1013.5
20260507033336 7 148 0.0 1.6 0.10 2.90 0.13 96 1013.6
20260507032846 7 148 0.0 0.0 0.10 2.90 0.13 96 1013.5
20260507032335 7 148 0.0 0.0 0.10 2.90 0.13 96 1013.5
20260507031342 7 148 0.0 0.0 0.20 2.90 0.13 96 1013.4
20260507030852 7 148 0.0 0.0 0.10 2.79 0.10 96 1013.4
20260507030341 7 148 0.0 0.0 0.10 2.79 0.10 96 1013.4
20260507025850 7 148 0.0 0.0 0.20 2.79 0.10 96 1013.5
20260507025340 7 148 0.0 0.0 0.20 2.79 0.10 96 1013.4
20260507024850 7 148 0.0 0.0 0.20 2.79 0.10 96 1013.3
20260507024346 7 148 0.0 0.0 0.20 2.79 0.10 96 1013.4
20260507023836 7 148 0.0 0.0 0.30 2.79 0.10 96 1013.4
20260507023345 7 148 0.0 0.0 0.30 2.79 0.10 96 1013.4
20260507022835 7 148 0.0 0.0 0.30 2.79 0.10 96 1013.3
20260507022345 7 148 0.0 1.6 0.41 2.79 0.10 96 1013.2
20260507021835 7 148 0.0 1.6 0.30 2.69 0.08 96 1013.2
20260507021345 7 148 0.0 1.6 0.30 2.69 0.08 97 1013.2
20260507020853 7 148 0.0 3.2 0.30 2.69 0.08 97 1013.2
20260507020341 7 148 1.6 4.8 0.30 2.69 0.08 97 1013.2
20260507015834 7 153 0.0 4.8 0.20 2.59 0.05 97 1013.2
20260507015346 7 152 0.0 4.8 0.20 2.59 0.05 97 1013.2
20260507014836 7 139 0.0 4.8 0.20 2.59 0.05 97 1013.2
20260507014348 7 139 0.0 4.8 0.20 2.59 0.05 97 1013.1
20260507013936 7 125 0.0 3.2 0.10 2.49 0.05 97 1013.0
20260507013420 7 147 0.0 3.2 0.10 2.49 0.05 97 1013.0
20260507012845 7 147 0.0 1.6 0.10 2.49 0.05 97 1013.0
20260507012335 7 147 0.0 1.6 0.00 2.39 0.03 97 1013.0
20260507011844 7 147 0.0 0.0 0.00 2.39 0.03 97 1012.9
20260507011352 6 147 0.0 0.0 0.10 2.39 0.03 97 1012.9
20260507010842 6 147 0.0 0.0 0.10 2.39 0.03 97 1012.9
20260507010351 6 147 0.0 0.0 0.10 2.39 0.03 97 1012.9
20260507005843 6 147 0.0 0.0 0.10 2.39 0.03 97 1012.9
20260507005353 6 147 0.0 0.0 0.10 2.39 0.03 96 1012.9
20260507004842 6 147 0.0 0.0 0.10 2.39 0.03 97 1012.8
20260507004353 6 147 0.0 0.0 0.10 2.39 0.03 97 1012.9
20260507003844 6 147 0.0 0.0 0.10 2.39 0.03 97 1012.8
20260507003334 6 147 0.0 0.0 0.10 2.39 0.03 97 1012.8
20260507002844 6 147 0.0 0.0 0.10 2.39 0.03 97 1012.7
20260507002433 6 147 0.0 0.0 0.10 2.39 0.03 97 1012.8
20260507001840 6 147 0.0 0.0 0.10 2.39 0.03 97 1012.7
20260507001350 6 147 0.0 0.0 0.00 2.31 0.00 97 1012.8
20260507000845 6 147 0.0 0.0 0.00 2.31 0.00 96 1012.8
20260507000336 6 147 0.0 0.0 0.00 2.31 0.00 96 1012.9
20260506235845 6 147 0.0 0.0 0.00 2.31 0.00 96 1012.9
20260506235354 6 147 0.0 0.0 0.00 2.31 0.00 97 1012.8
20260506234844 6 147 0.0 0.0 0.00 2.31 0.00 97 1012.8
20260506234353 6 147 0.0 0.0 0.00 2.31 0.00 97 1012.9
20260506233842 6 147 0.0 1.6 0.00 2.31 0.00 97 1012.8
20260506233352 6 147 0.0 1.6 0.00 2.31 0.00 97 1012.8
20260506232845 6 147 0.0 0.0 0.00 2.31 0.00 96 1012.8
20260506232335 6 147 0.0 0.0 0.00 2.31 0.00 96 1012.8
20260506231848 6 147 0.0 0.0 0.00 2.31 0.00 96 1012.8
20260506231336 6 147 0.0 0.0 0.00 2.31 0.00 96 1012.7
20260506230846 6 147 0.0 0.0 0.00 2.31 0.00 96 1012.7
20260506230355 6 147 0.0 0.0 0.00 2.31 0.00 96 1012.7
20260506225843 6 147 0.0 0.0 0.00 2.31 0.00 96 1012.7
20260506225352 6 147 0.0 0.0 0.00 2.31 0.00 96 1012.6
20260506224843 6 147 0.0 0.0 0.00 2.31 0.00 96 1012.6
20260506224336 6 147 0.0 0.0 0.00 2.31 0.00 96 1012.6
20260506223848 6 147 0.0 0.0 0.00 2.31 0.00 96 1012.6
20260506223336 6 147 0.0 0.0 0.00 2.31 0.00 96 1012.7
20260506222847 6 147 0.0 0.0 0.00 2.31 0.00 96 1012.6
20260506222336 6 147 0.0 0.0 0.00 2.31 0.00 96 1012.6
20260506221847 6 147 0.0 0.0 0.00 2.31 0.00 96 1012.6
20260506221336 6 147 0.0 0.0 0.00 2.31 0.00 96 1012.5
20260506220846 6 147 0.0 0.0 0.00 2.31 0.00 95 1012.5
20260506220341 6 147 0.0 0.0 0.00 2.31 0.46 96 1012.6
20260506215851 6 147 0.0 0.0 0.00 2.31 0.46 96 1012.6
20260506215341 6 147 0.0 0.0 0.00 2.31 0.46 96 1012.6
20260506214850 6 147 0.0 0.0 0.00 2.31 0.46 95 1012.6
20260506214341 6 147 0.0 0.0 0.00 2.31 0.46 95 1012.4
20260506213850 6 147 0.0 0.0 0.00 2.31 0.46 95 1012.5
20260506213439 6 147 0.0 0.0 0.00 2.31 0.46 95 1012.5
20260506212842 6 147 0.0 1.6 0.00 2.31 0.46 95 1012.5
20260506212352 7 147 0.0 1.6 0.00 2.31 0.46 95 1012.6
20260506211843 7 147 0.0 0.0 0.00 2.31 0.46 95 1012.4
20260506211336 7 147 0.0 0.0 0.00 2.31 0.46 95 1012.3
20260506210846 7 147 0.0 0.0 0.00 2.31 0.46 95 1012.3
20260506210336 7 147 0.0 0.0 0.00 2.31 0.46 95 1012.4
20260506205846 7 147 0.0 0.0 0.00 2.31 0.46 95 1012.3
20260506205337 7 147 0.0 0.0 0.00 2.31 0.46 95 1012.3
20260506204846 7 147 0.0 0.0 0.00 2.31 0.46 95 1012.3
20260506204353 7 147 0.0 0.0 0.00 2.31 0.46 95 1012.3
20260506203842 7 147 0.0 0.0 0.00 2.31 0.46 94 1012.2
20260506202846 7 147 0.0 0.0 0.00 2.31 0.46 94 1012.1
20260506202335 7 147 0.0 0.0 0.00 2.31 0.46 94 1012.0
20260506201844 7 147 0.0 0.0 0.00 2.31 0.46 94 1012.0
20260506201353 7 147 0.0 0.0 0.00 2.31 0.46 94 1011.8
20260506200841 7 147 0.0 0.0 0.00 2.31 0.46 94 1011.7
20260506200349 7 147 0.0 0.0 0.00 2.31 0.46 94 1011.7
20260506195839 7 147 0.0 0.0 0.00 2.31 0.46 93 1011.6
20260506195350 7 147 0.0 0.0 0.00 2.31 0.46 93 1011.6
20260506194840 8 147 0.0 0.0 0.00 2.31 0.46 93 1011.4
20260506194335 8 147 0.0 0.0 0.00 2.31 0.46 92 1011.4
20260506193844 8 147 0.0 0.0 0.00 2.31 0.46 92 1011.3
20260506193334 8 147 0.0 0.0 0.00 2.31 0.46 92 1011.3
20260506192846 8 147 0.0 0.0 0.00 2.31 0.46 92 1011.3
20260506192334 8 147 0.0 3.2 0.00 2.31 0.46 91 1011.2
20260506191844 8 147 0.0 3.2 0.00 2.31 0.46 91 1011.2
20260506191351 8 147 1.6 3.2 0.00 2.31 0.46 90 1011.2
20260506190839 9 147 1.6 6.4 0.00 2.31 0.46 89 1011.1
20260506190349 9 147 3.2 6.4 0.00 2.31 0.46 89 1011.0
20260506185842 10 147 3.2 6.4 0.00 2.31 0.46 89 1011.0
20260506185351 9 147 1.6 8.0 0.00 2.31 0.46 89 1011.0
20260506184842 9 153 3.2 6.4 0.00 2.31 0.46 89 1011.0
20260506184352 10 148 3.2 4.8 0.00 2.31 0.46 89 1011.0
20260506183841 10 141 3.2 4.8 0.00 2.31 0.46 87 1010.9
20260506183352 10 141 3.2 4.8 0.00 2.31 0.46 86 1010.8
20260506182840 10 146 1.6 6.4 0.00 2.31 0.46 85 1010.7
20260506182351 10 131 1.6 8.0 0.00 2.31 0.46 85 1010.6